• In Netherlands
  • List of Countries
  • For 7 days
  • Water Temperature
  • Satellite Maps
  • Weather Map
  • Weather Widgets
  • user-avatar
    Login

    Hourly Weather Atlantic City

    Today, 24 November, Friday

    Time Temperature Precipitation Wind Pressure Humidity
    00:00 0°C° 0 mm 3 mps 763 mmHg 61%
    01:00 0°C° 0 mm 3 mps 763 mmHg 62%
    02:00 0°C° 0 mm 3 mps 763 mmHg 63%
    03:00 -1°C° 0 mm 3 mps 763 mmHg 64%
    04:00 -1°C° 0 mm 3 mps 763 mmHg 65%
    05:00 -1°C° 0 mm 2 mps 763 mmHg 66%
    06:00 -1°C° 0 mm 2 mps 763 mmHg 66%
    07:00 -1°C° 0 mm 2 mps 763 mmHg 67%
    08:00 +3°C° 0 mm 2 mps 763 mmHg 58%
    09:00 +5°C° 0 mm 2 mps 763 mmHg 50%
    10:00 +8°C° 0 mm 1 mps 763 mmHg 41%
    11:00 +9°C° 0 mm 1 mps 763 mmHg 40%
    12:00 +9°C° 0 mm 2 mps 763 mmHg 38%
    13:00 +10°C° 0 mm 2 mps 762 mmHg 36%
    14:00 +9°C° 0 mm 2 mps 762 mmHg 40%
    15:00 +9°C° 0 mm 2 mps 762 mmHg 45%
    16:00 +8°C° 0 mm 3 mps 761 mmHg 50%
    17:00 +7°C° 0 mm 3 mps 761 mmHg 54%
    18:00 +5°C° 0 mm 3 mps 761 mmHg 59%
    19:00 +4°C° 0 mm 3 mps 762 mmHg 63%
    20:00 +4°C° 0 mm 3 mps 761 mmHg 65%
    21:00 +4°C° 0 mm 4 mps 761 mmHg 68%
    22:00 +4°C° 0 mm 4 mps 761 mmHg 70%
    23:00 +4°C° 0 mm 4 mps 760 mmHg 72%

    Tomorrow, 25 November, Saturday

    Time Temperature Precipitation Wind Pressure Humidity
    00:00 +4°C° 0 mm 4 mps 760 mmHg 73%
    01:00 +4°C° 0 mm 4 mps 760 mmHg 75%
    02:00 +4°C° 0 mm 4 mps 760 mmHg 77%
    03:00 +4°C° 0 mm 4 mps 759 mmHg 78%
    04:00 +4°C° 0 mm 4 mps 759 mmHg 80%
    05:00 +4°C° 0 mm 4 mps 759 mmHg 81%
    06:00 +4°C° 0 mm 4 mps 759 mmHg 83%
    07:00 +3°C° 0 mm 5 mps 758 mmHg 84%
    08:00 +6°C° 0 mm 5 mps 758 mmHg 76%
    09:00 +8°C° 0 mm 5 mps 758 mmHg 68%
    10:00 +10°C° 0 mm 5 mps 758 mmHg 59%
    11:00 +11°C° 0 mm 6 mps 757 mmHg 57%
    12:00 +13°C° 0 mm 6 mps 757 mmHg 55%
    13:00 +14°C° 0 mm 6 mps 756 mmHg 53%
    14:00 +13°C° 0 mm 5 mps 756 mmHg 56%
    15:00 +12°C° 0 mm 5 mps 756 mmHg 60%
    16:00 +12°C° 0 mm 4 mps 755 mmHg 63%
    17:00 +11°C° 0 mm 4 mps 756 mmHg 66%
    18:00 +10°C° 0 mm 4 mps 756 mmHg 68%
    19:00 +10°C° 0 mm 4 mps 756 mmHg 70%
    20:00 +9°C° 0.1 mm 5 mps 756 mmHg 73%
    21:00 +9°C° 0.1 mm 5 mps 756 mmHg 77%
    22:00 +9°C° 0.1 mm 5 mps 756 mmHg 80%
    23:00 +8°C° 0.1 mm 6 mps 756 mmHg 82%

    Day after tomorrow, 26 November, Sunday

    Time Temperature Precipitation Wind Pressure Humidity
    00:00 +8°C° 0.1 mm 6 mps 756 mmHg 83%
    01:00 +6°C° 0.1 mm 7 mps 756 mmHg 85%
    02:00 +6°C° 0 mm 7 mps 757 mmHg 83%
    03:00 +5°C° 0 mm 8 mps 757 mmHg 81%
    04:00 +5°C° 0 mm 9 mps 757 mmHg 79%
    05:00 +3°C° 0 mm 9 mps 758 mmHg 74%
    06:00 +2°C° 0 mm 9 mps 759 mmHg 70%
    07:00 +2°C° 0 mm 9 mps 760 mmHg 65%
    08:00 +3°C° 0 mm 9 mps 760 mmHg 60%
    09:00 +3°C° 0 mm 9 mps 761 mmHg 54%
    10:00 +5°C° 0 mm 9 mps 761 mmHg 49%
    11:00 +5°C° 0 mm 8 mps 761 mmHg 47%
    12:00 +6°C° 0 mm 8 mps 761 mmHg 45%
    13:00 +6°C° 0 mm 8 mps 761 mmHg 42%
    14:00 +6°C° 0 mm 7 mps 761 mmHg 44%
    15:00 +5°C° 0 mm 7 mps 761 mmHg 46%
    16:00 +5°C° 0 mm 6 mps 761 mmHg 48%
    17:00 +4°C° 0 mm 6 mps 761 mmHg 52%
    18:00 +3°C° 0 mm 6 mps 762 mmHg 55%
    19:00 +2°C° 0 mm 6 mps 762 mmHg 59%
    20:00 +2°C° 0 mm 6 mps 762 mmHg 60%
    21:00 +2°C° 0 mm 7 mps 763 mmHg 62%
    22:00 +2°C° 0 mm 7 mps 763 mmHg 63%
    23:00 +2°C° 0 mm 7 mps 763 mmHg 64%

    27 November, Monday

    Time Temperature Precipitation Wind Pressure Humidity
    00:00 0°C° 0 mm 7 mps 763 mmHg 64%
    01:00 0°C° 0 mm 7 mps 762 mmHg 65%
    02:00 0°C° 0 mm 7 mps 762 mmHg 65%
    03:00 0°C° 0 mm 7 mps 762 mmHg 64%
    04:00 0°C° 0 mm 7 mps 762 mmHg 64%
    05:00 +2°C° 0 mm 7 mps 763 mmHg 65%
    06:00 +2°C° 0 mm 7 mps 763 mmHg 66%
    07:00 +1°C° 0 mm 8 mps 763 mmHg 67%
    08:00 +2°C° 0 mm 8 mps 764 mmHg 64%
    09:00 +4°C° 0 mm 7 mps 764 mmHg 60%
    10:00 +6°C° 0 mm 7 mps 764 mmHg 57%
    11:00 +8°C° 0 mm 7 mps 764 mmHg 55%
    12:00 +8°C° 0 mm 7 mps 764 mmHg 52%
    13:00 +9°C° 0 mm 7 mps 764 mmHg 49%
    14:00 +9°C° 0 mm 6 mps 764 mmHg 51%
    15:00 +8°C° 0 mm 6 mps 764 mmHg 52%
    16:00 +8°C° 0 mm 5 mps 764 mmHg 53%
    17:00 +7°C° 0 mm 5 mps 765 mmHg 56%
    18:00 +6°C° 0 mm 5 mps 766 mmHg 59%
    19:00 +5°C° 0 mm 4 mps 766 mmHg 62%
    20:00 +4°C° 0 mm 4 mps 767 mmHg 63%
    21:00 +4°C° 0 mm 3 mps 767 mmHg 64%
    22:00 +3°C° 0 mm 3 mps 767 mmHg 65%
    23:00 +4°C° 0 mm 2 mps 767 mmHg 67%

    28 November, Tuesday

    Time Temperature Precipitation Wind Pressure Humidity
    00:00 +5°C° 0 mm 1 mps 768 mmHg 68%
    01:00 +4°C° 0 mm 1 mps 768 mmHg 70%
    02:00 +4°C° 0 mm 1 mps 768 mmHg 71%
    03:00 +4°C° 0 mm 1 mps 768 mmHg 73%
    04:00 +4°C° 0 mm 1 mps 768 mmHg 74%
    05:00 +5°C° 0 mm 1 mps 768 mmHg 75%
    06:00 +4°C° 0 mm 2 mps 768 mmHg 75%
    07:00 +3°C° 0 mm 3 mps 768 mmHg 76%
    08:00 +6°C° 0 mm 4 mps 768 mmHg 69%
    09:00 +8°C° 0 mm 4 mps 769 mmHg 63%
    10:00 +10°C° 0 mm 5 mps 769 mmHg 57%
    11:00 +11°C° 0 mm 6 mps 768 mmHg 55%
    12:00 +13°C° 0 mm 6 mps 768 mmHg 52%
    13:00 +14°C° 0 mm 7 mps 767 mmHg 50%
    14:00 +12°C° 0 mm 7 mps 767 mmHg 53%
    15:00 +12°C° 0 mm 7 mps 766 mmHg 57%
    16:00 +11°C° 0 mm 7 mps 766 mmHg 60%
    17:00 +10°C° 0 mm 7 mps 766 mmHg 63%
    18:00 +10°C° 0 mm 7 mps 766 mmHg 66%
    19:00 +9°C° 0 mm 7 mps 766 mmHg 69%
    20:00 +9°C° 0 mm 7 mps 766 mmHg 69%
    21:00 +9°C° 0 mm 7 mps 766 mmHg 68%
    22:00 +9°C° 0 mm 7 mps 766 mmHg 68%
    23:00 +8°C° 0 mm 7 mps 765 mmHg 67%

    29 November, Wednesday

    Time Temperature Precipitation Wind Pressure Humidity
    00:00 +8°C° 0 mm 7 mps 765 mmHg 67%
    01:00 +8°C° 0 mm 7 mps 765 mmHg 67%
    02:00 +8°C° 0 mm 7 mps 765 mmHg 67%
    03:00 +8°C° 0 mm 7 mps 765 mmHg 68%
    04:00 +6°C° 0 mm 7 mps 765 mmHg 68%
    05:00 +7°C° 0 mm 6 mps 765 mmHg 70%
    06:00 +5°C° 0 mm 6 mps 765 mmHg 73%
    07:00 +5°C° 0 mm 6 mps 765 mmHg 75%
    08:00 +8°C° 0 mm 5 mps 765 mmHg 69%
    09:00 +9°C° 0 mm 5 mps 766 mmHg 63%
    10:00 +12°C° 0 mm 4 mps 766 mmHg 57%
    11:00 +13°C° 0 mm 4 mps 765 mmHg 55%
    12:00 +14°C° 0 mm 4 mps 765 mmHg 53%
    13:00 +17°C° 0 mm 3 mps 765 mmHg 51%
    14:00 +16°C° 0 mm 3 mps 765 mmHg 55%
    15:00 +15°C° 0 mm 2 mps 765 mmHg 59%
    16:00 +15°C° 0 mm 2 mps 765 mmHg 63%
    17:00 +13°C° 0 mm 2 mps 765 mmHg 67%
    18:00 +12°C° 0 mm 1 mps 765 mmHg 71%
    19:00 +11°C° 0 mm 1 mps 766 mmHg 76%
    20:00 +11°C° 0 mm 1 mps 766 mmHg 77%
    21:00 +10°C° 0 mm 0 mps 765 mmHg 79%
    22:00 +9°C° 0 mm 0 mps 765 mmHg 80%
    23:00 +9°C° 0 mm 0 mps 765 mmHg 81%
    Show more